Location: Erlenbrunn
(49.1717°N, 7.6142°E)
Time: 10:56:28
(UTC+00:00)

Cosmos 1500 Rocket - Pass Details

Date: 25 November 2020
Orbit: 603 x 631 km, 82.5° (Epoch: 25 January)

Event Time Altitude Azimuth Distance (km) Brightness Sun altitude
Rises 16:42:48 0° 347° (NNW) 2,895 6.9 -10.4°
Reaches altitude 10° 16:45:03 10° 344° (NNW) 1,989 6.1 -10.7°
Maximum altitude 16:49:23 60° 265° (W) 713 4.2 -11.4°
Drops below altitude 10° 16:53:44 10° 185° (S) 1,990 6.5 -12.1°
Sets 16:55:58 0° 182° (S) 2,896 7.3 -12.4°
